STARLINK-35519 (65919 NORAD) Tracking and Keplerian Element Data

This shows tracking and keplerian element data for the satellite.

Feedback or suggestion? Click here.




ElementValue
Catalog65919
NameSTARLINK-35519
Epoch Orbit1209
Epoch Day353.22365257
Epoch Year2025
RAAN179.0595
Inclination53.1576
Eccentricity0.000185
Argument of Perigee82.7425
Mean Anonmoly277.3786
Mean Motion15.30198863
Decay Rate0.00016433
L11 65919U 25225K 25353.22365257 .00016433 00000+0 56574-3 0 9992
L22 65919 53.1576 179.0595 0001850 82.7425 277.3786 15.30198863 12093



Live tracking and technical data element details for STARLINK-35519 (NORAD 65919). STARLINK-35519 can be tracked NOW for your location showing map with azimuth and elevation plus other details from your city location.







IsCatalogInMostPopularTable: catalog: 65919, numindb: 10
Update: records affected: 1



GetName: 65919 STARLINK-35519

Hit Count: updated at: Mon, 20 Apr 2026 10:48:56 GMT